BG5HLN-13 Weather Reports


time (UTC)temp
C
wind
direction
speed
KPH
gust
KPH
rain 1hr
cm
rain 24hr
cm
rain mn
cm
humidity
%
barometer
mb
20260504081804 26 0 0.0 0.0 0.00 0.00 0.00 52 1015.3
20260504080935 26 0 0.0 0.0 0.00 0.00 0.00 50 1015.3
20260504080804 26 0 0.0 0.0 0.00 0.00 0.00 50 1015.3
20260504044803 25 0 0.0 0.0 0.00 0.00 0.00 50 1016.8
20260504043935 25 0 0.0 0.0 0.00 0.00 0.00 53 1016.9
20260504043803 25 0 0.0 0.0 0.00 0.00 0.00 52 1016.9
20260504042802 25 90 0.0 0.0 0.00 0.00 0.00 52 1016.9
20260504041803 25 0 0.0 0.0 0.00 0.00 0.00 52 1017.0
20260504040934 25 0 0.0 0.0 0.00 0.00 0.00 49 1017.1
20260504040803 25 0 0.0 0.0 0.00 0.00 0.00 53 1017.1
20260504035803 25 0 0.0 0.0 0.00 0.00 0.00 53 1017.2
20260504034803 25 0 0.0 0.0 0.00 0.00 0.00 51 1017.4
20260504033802 25 0 0.0 0.0 0.00 0.00 0.00 52 1017.5
20260504032803 24 0 0.0 0.0 0.00 0.00 0.00 54 1017.5
20260504031803 24 0 0.0 0.0 0.00 0.00 0.00 55 1017.5
20260504030934 23 0 0.0 0.0 0.00 0.00 0.00 54 1017.7
20260504030803 23 0 0.0 0.0 0.00 0.00 0.00 55 1017.8
20260504025802 23 0 0.0 0.0 0.00 0.00 0.00 55 1017.8
20260504024802 23 0 0.0 0.0 0.00 0.00 0.00 58 1018.0
20260504023934 23 0 0.0 0.0 0.00 0.00 0.00 60 1018.0
20260504023803 23 0 0.0 0.0 0.00 0.03 0.00 60 1018.0
20260504022802 23 0 0.0 0.0 0.00 0.03 0.00 61 1018.0
20260504021802 22 0 0.0 0.0 0.00 0.03 0.00 62 1018.0
20260504020933 22 0 0.0 0.0 0.00 0.03 0.00 64 1018.0
20260504020802 22 0 0.0 0.0 0.00 0.03 0.00 64 1018.0
20260504015802 22 0 0.0 0.0 0.00 0.03 0.00 62 1018.0
20260504014803 22 0 0.0 0.0 0.00 0.03 0.00 64 1018.0
20260504013934 22 0 0.0 0.0 0.00 0.03 0.00 68 1018.0
20260504013801 22 0 0.0 0.0 0.00 0.03 0.00 67 1018.0
20260504012803 21 0 0.0 0.0 0.00 0.03 0.00 69 1018.0
20260504011802 21 0 0.0 0.0 0.00 0.03 0.00 73 1018.0
20260504010933 21 0 0.0 0.0 0.00 0.03 0.00 73 1018.0
20260504010802 21 0 0.0 0.0 0.00 0.03 0.00 72 1018.0
20260504005802 21 0 0.0 0.0 0.00 0.03 0.00 71 1018.0
20260504004801 21 0 0.0 0.0 0.00 0.03 0.00 71 1018.0
20260504003934 21 0 0.0 0.0 0.00 0.03 0.00 73 1017.9
20260504003802 21 0 0.0 0.0 0.00 0.03 0.00 72 1017.9
20260504002802 21 0 0.0 0.0 0.00 0.03 0.00 75 1017.9
20260504001802 20 0 0.0 0.0 0.00 0.03 0.00 73 1017.8
20260504000933 20 0 0.0 0.0 0.00 0.03 0.00 75 1017.7
20260504000802 20 0 0.0 0.0 0.00 0.03 0.00 76 1017.7
20260503235801 20 0 0.0 0.0 0.00 0.03 0.00 78 1017.7
20260503234802 20 0 0.0 0.0 0.00 0.03 0.00 79 1017.6
20260503233933 20 0 0.0 0.0 0.00 0.03 0.00 79 1017.7
20260503233801 20 0 0.0 0.0 0.00 0.03 0.00 78 1017.6
20260503232801 20 0 0.0 0.0 0.00 0.03 0.00 77 1017.6
20260503231801 20 0 0.0 0.0 0.00 0.03 0.00 76 1017.5
20260503230933 20 0 0.0 0.0 0.00 0.03 0.00 76 1017.4
20260503230802 20 0 0.0 0.0 0.00 0.03 0.00 76 1017.4
20260503225802 20 0 0.0 0.0 0.00 0.03 0.00 76 1017.2
20260503224801 20 0 0.0 0.0 0.00 0.03 0.00 76 1017.1
20260503223933 20 0 0.0 0.0 0.00 0.03 0.00 75 1017.0
20260503223801 20 0 0.0 0.0 0.00 0.03 0.00 75 1016.9
20260503222801 20 0 0.0 0.0 0.00 0.03 0.00 74 1016.7
20260503221801 19 0 0.0 0.0 0.00 0.03 0.00 73 1016.6
20260503220933 19 0 0.0 0.0 0.00 0.03 0.00 74 1016.6
20260503220802 19 0 0.0 0.0 0.00 0.03 0.00 74 1016.6
20260503215801 19 0 0.0 0.0 0.00 0.03 0.00 76 1016.5
20260503214801 19 0 0.0 0.0 0.00 0.05 0.00 75 1016.4
20260503213932 19 0 0.0 0.0 0.00 0.05 0.00 74 1016.4
20260503213801 19 0 0.0 0.0 0.00 0.05 0.00 73 1016.4
20260503212801 20 0 0.0 0.0 0.00 0.08 0.00 72 1016.2
20260503211802 20 0 0.0 0.0 0.00 0.13 0.00 72 1016.1
20260503210932 20 0 0.0 0.0 0.00 0.13 0.00 72 1016.0
20260503210801 20 0 0.0 0.0 0.00 0.13 0.00 72 1016.0
20260503205801 20 0 0.0 0.0 0.00 0.15 0.00 72 1016.0
20260503204801 20 0 0.0 0.0 0.00 0.23 0.00 72 1016.0
20260503203932 20 0 0.0 0.0 0.00 0.25 0.00 72 1015.9
20260503203801 20 0 0.0 0.0 0.00 0.25 0.00 72 1015.9
20260503202800 20 0 0.0 0.0 0.00 0.25 0.00 72 1015.9
20260503201801 20 0 0.0 0.0 0.00 0.28 0.00 72 1015.8
20260503200932 20 0 0.0 0.0 0.00 0.28 0.00 72 1015.8
20260503200801 20 0 0.0 0.0 0.00 0.28 0.00 72 1015.8
20260503195801 19 0 0.0 0.0 0.00 0.33 0.00 73 1015.6
20260503194801 19 0 0.0 0.0 0.00 0.33 0.00 72 1015.6
20260503193932 19 0 0.0 0.0 0.00 0.38 0.00 74 1015.4
20260503193800 19 0 0.0 0.0 0.00 0.38 0.00 74 1015.4
20260503192800 19 0 0.0 0.0 0.00 0.46 0.00 73 1015.3
20260503191801 19 0 0.0 0.0 0.00 0.46 0.00 74 1015.2
20260503190932 19 0 0.0 0.0 0.00 0.51 0.00 74 1015.2
20260503190801 19 0 0.0 0.0 0.00 0.51 0.00 74 1015.2
20260503185801 19 0 0.0 0.0 0.00 0.51 0.00 74 1015.4
20260503184801 19 0 0.0 0.0 0.00 0.56 0.00 74 1015.5
20260503183931 19 0 0.0 0.0 0.00 0.58 0.00 74 1015.3
20260503183800 19 0 0.0 0.0 0.00 0.58 0.00 74 1015.3
20260503182800 19 0 0.0 0.0 0.00 0.66 0.00 75 1015.2
20260503181800 19 0 0.0 0.0 0.00 0.71 0.00 74 1015.3
20260503180931 20 0 0.0 0.0 0.00 0.79 0.00 75 1015.2
20260503180800 20 0 0.0 0.0 0.00 0.79 0.00 75 1015.2
20260503175801 19 0 0.0 0.0 0.00 0.84 0.00 74 1015.2
20260503174800 20 0 0.0 0.0 0.00 0.89 0.00 73 1015.0
20260503173932 20 0 0.0 0.0 0.00 0.94 0.00 72 1015.1
20260503173800 20 0 0.0 0.0 0.00 0.94 0.00 72 1015.1
20260503172801 20 0 0.0 0.0 0.00 1.02 0.00 73 1015.1
20260503171800 20 0 0.0 0.0 0.00 1.07 0.00 71 1015.3
20260503170931 20 0 0.0 0.0 0.00 1.12 0.00 72 1015.2
20260503170800 20 0 0.0 0.0 0.00 1.12 0.00 72 1015.2
20260503150931 20 0 0.0 0.0 0.00 1.35 0.00 73 1014.6
20260503150927 20 0 0.0 0.0 0.00 1.35 0.00 73 1014.7
20260503130930 21 0 0.0 0.0 0.00 1.35 0.00 67 1014.4
20260503130927 21 0 0.0 0.0 0.00 1.35 0.00 67 1014.3